Regional Weather Roundup
Issued by NWS Newport/Morehead, NC

Current Version | Previous Version | Text Only | Print | Product List | Glossary Off
Versions: 1 2 3 4 5 6 7 8 9 10 11 12 13 14 15 16 17 18 19 20 21 22 23 24 25 26 27 28 29 30 31 32 33 34 35 36 37 38 39 40 41 42 43 44 45 46 47 48 49 50
653 ASUS42 KMHX 211614 RWRMHX WEATHER ROUNDUP FOR EASTERN NORTH CAROLINA NATIONAL WEATHER SERVICE NEWPORT/MOREHEAD CITY NC 1200 PM EDT FRI JUL 21 2017 NOTE: "FAIR" INDICATES FEW OR NO CLOUDS BELOW 12,000 FEET WITH NO SIGNIFICANT WEATHER AND/OR OBSTRUCTIONS TO VISIBILITY NCZ015>017-031-032-045>047-102-103-211700- NORTH COAST CITY SKY/WX TMP DP RH WIND PRES REMARKS EDENTON MOSUNNY 90 78 66 CALM 30.00F HX 103 ELIZABETH CITY MOSUNNY 90 79 70 SW5 29.99S HX 106 KITTY HAWK MOSUNNY 87 73 62 CALM 29.99S MANTEO MOSUNNY 88 78 73 S6 30.00F HX 101 $$ NCZ045>047-081-094-103-104-211700- CENTRAL COAST CITY SKY/WX TMP DP RH WIND PRES REMARKS FRISCO SUNNY 84 77 79 SW7 30.03S $$ NCZ095-097-098-100-101-211700- SOUTHERN COAST CITY SKY/WX TMP DP RH WIND PRES REMARKS BEAUFORT SUNNY 85 79 82 SW13 30.03F CEDAR ISLAND NOT AVBL JACKSONVILLE SUNNY 91 75 59 SW9 30.02S HX 101 PINEY ISLAND SUNNY N/A N/A N/A SW9 30.02S WILMINGTON SUNNY 89 74 60 SW7 30.03F $$ NCZ011>013-027>030-043-044-078>080-089-090>093-098-211700- COASTAL PLAIN CITY SKY/WX TMP DP RH WIND PRES REMARKS AHOSKIE N/A 86 78 76 S3 29.99S CLINTON SUNNY 90 78 68 SW6 30.02F HX 104 ELIZABETHTOWN NOT AVBL GOLDSBORO SUNNY 91 80 70 SW6 29.99F HX 108 GREENVILLE SUNNY 91 75 59 SW6 30.01F HX 102 HAVELOCK MOSUNNY 91 73 55 W5 30.03S KENANSVILLE SUNNY 91 75 59 S5 30.02F HX 102 KINSTON SUNNY 93 73 52 SW8 30.01F HX 102 NEW BERN SUNNY 91 76 61 VRB6 30.02F HX 103 RICHLANDS NOT AVBL ROCKY MOUNT SUNNY 91 76 61 W6 30.00F HX 103 WASHINGTON SUNNY 91 76 62 S5 30.00F HX 102 WHITEVILLE SUNNY 88 73 61 SW6 30.04S $$ AMZ130-135-150-152-154-156-158-170-250-252-270-ANZ085-086-088-633-658-670-211700- MARINE OBSERVATIONS STATION/POSITION TIME TEMP WIND PRES WAVE SWELL AIR SEA DIR/SP/G HT/PER HT/PER (UTC) (F) (DEG/KT/KT) (MB) (FT/S) (FT/S) CHESAPEAKE LIGHT NOT AVBL 64 E VA BEACH 1550 80 80 210/ 12/ 14 1016.0 2/ 7 2/ 7 DUCK 1548 85 58 220/ 9/ 10 1015.3 2 E DUCK 1600 64 N/A 2/14 2/14 OREGON INLET 1542 83 83 190/ 12/ 13 1016.0 13E OREGON INLT 1548 80 N/A 2/13 2/13 HATTERAS CG 1548 82 79 210/ 6/ 10 1016.7 DIAMOND BUOY 1550 83 85 240/ 12/ 14 1017.0 3/ 5 2/ 8 CAPE LOOKOUT 1600 83 220/ 9/ 12 1016.8 BEAUFORT LAB 1548 83 80 200/ 10/ 12 1016.4 30 SE NEW RVR IN 1508 81 82 250/ 10/ 14 1017.8 30 SE NEW RVR IN 1543 82 N/A 3/ 8 2/14 27 SE WRIGHTSVLE 1508 81 81 220/ 12/ 16 1017.8 5 SE WRIGHTSVLE 1508 82 81 200/ 8/ 10 1017.4 225 S CAPE HAT 1550 82 84 220/ 10/ 10 1019.4 3/ 8 3/ 8 41 SE CHARLESTON 1550 82 84 230/ 8/ 12 1018.4 3/ 8 2/ 8 $$

USA.gov is the U.S. government's official web portal to all federal, state and local government web resources and services.